Imperial, NE

8:09 PM MDT on June 25, 2017 (GMT -0600)
Imperial Municipal

Weather History for KIML - May, 2014

Change the Weather History Date:

Sunday, May 11, 2014

  Actual Average Record
Temperature  
Mean Temperature 46 °F 58 °F  
Max Temperature 52 °F 72 °F 96 °F (1962)
Min Temperature 39 °F 45 °F 28 °F (1948)
Degree Days  
Heating Degree Days 19 8  
Month to date heating degree days 106 104  
Cooling Degree Days 0 1  
Month to date cooling degree days 0 7  
Year to date cooling degree days 1 8  
Moisture  
Dew Point 41 °F    
Average Humidity 83    
Maximum Humidity 92    
Minimum Humidity 74    
Precipitation  
Precipitation 0.58 in 0.08 in 2.48 in (1972)
Sea Level Pressure  
Sea Level Pressure 29.81 in    
Wind  
Wind Speed 23 mph (NNE)    
Max Wind Speed 35 mph    
Max Gust Speed 43 mph    
Visibility 6 miles    
Events Rain , Thunderstorm    
T = Trace of Precipitation, MM = Missing Value Source: NWS Daily Summary

Daily Weather History Graph

Daily Weather History Graph

Search for Another Location

Airport or City:

Trip Planner

Search our weather history database for the weather conditions in past years. The results will help you decide how hot, cold, wet, or windy it might be!

Date:

Astronomy

May. 11, 2014 Rise Set
Actual Time 5:33 AM MDT 7:52 PM MDT
Civil Twilight 5:03 AM MDT 8:23 PM MDT
Nautical Twilight 4:25 AM MDT 9:00 PM MDT
Astronomical Twilight 3:44 AM MDT 9:42 PM MDT
Moon 4:49 PM MDT (5/11) 3:40 AM MDT (5/11)
Length of Visible Light 15h 19m
Length of Day
14h 18m
Waxing Gibbous, 89% of the Moon is Illuminated
May 11
Waxing Gibbous
May 14
Full
May 21
Last Quarter
May 28
New
Jun 5
First Quarter

Hourly Weather History & Observations

Time (MDT) Temp. Windchill Dew Point Humidity Pressure Visibility Wind Dir Wind Speed Gust Speed Precip Events Conditions
12:53 AM 52.0 °F - 46.0 °F 80% 29.75 in 10.0 mi NNE 11.5 mph - N/A   Mostly Cloudy
1:53 AM 51.1 °F - 46.0 °F 83% 29.71 in 10.0 mi NE 15.0 mph - 0.01 in Rain Light Rain
2:53 AM 50.0 °F - 44.1 °F 80% 29.64 in 10.0 mi NE 17.3 mph - 0.00 in   Clear
3:53 AM 50.0 °F - 45.0 °F 83% 29.67 in 10.0 mi NNE 18.4 mph - N/A   Overcast
4:53 AM 50.0 °F - 44.1 °F 80% 29.65 in 10.0 mi NE 18.4 mph 25.3 mph N/A   Overcast
5:53 AM 50.0 °F - 43.0 °F 77% 29.65 in 10.0 mi NE 29.9 mph 38.0 mph N/A   Overcast
6:53 AM 50.0 °F - 43.0 °F 77% 29.68 in 10.0 mi NE 31.1 mph 42.6 mph N/A   Overcast
7:24 AM 50.0 °F - 43.0 °F 77% 29.74 in 10.0 mi NE 26.5 mph 38.0 mph N/A   Overcast
7:53 AM 50.0 °F - 43.0 °F 77% 29.74 in 10.0 mi NE 21.9 mph 31.1 mph N/A   Overcast
8:53 AM 50.0 °F - 43.0 °F 77% 29.74 in 10.0 mi NNE 20.7 mph 29.9 mph N/A   Overcast
9:53 AM 46.9 °F - 43.0 °F 86% 29.73 in 9.0 mi NNE 20.7 mph 32.2 mph 0.00 in Rain Light Rain
10:12 AM 46.9 °F - 43.0 °F 86% 29.74 in 8.0 mi NNE 21.9 mph 34.5 mph 0.00 in   Overcast
10:53 AM 46.0 °F 38.3 °F 42.1 °F 86% 29.78 in 3.0 mi NNE 20.7 mph 31.1 mph 0.01 in Rain Light Rain
11:04 AM 46.0 °F 38.0 °F 42.1 °F 86% 29.77 in 2.5 mi NNE 21.9 mph - 0.00 in Rain Light Rain
11:28 AM 46.0 °F 37.8 °F 43.0 °F 89% 29.77 in 3.0 mi NNE 23.0 mph 29.9 mph 0.01 in Rain Light Rain
11:40 AM 46.0 °F 37.6 °F 43.0 °F 89% 29.77 in 2.0 mi NNE 24.2 mph 33.4 mph 0.01 in Rain Light Rain
11:49 AM 44.6 °F 35.7 °F 42.8 °F 93% 29.77 in 2.5 mi NNE 24.2 mph 32.2 mph 0.01 in Rain Light Rain
11:53 AM 45.0 °F 36.4 °F 42.1 °F 90% 29.77 in 2.5 mi NNE 23.0 mph 29.9 mph 0.01 in Rain Light Rain
12:12 PM 45.0 °F 36.2 °F 42.1 °F 90% 29.77 in 3.0 mi NNE 24.2 mph 31.1 mph 0.01 in Rain Light Rain
12:22 PM 45.0 °F 36.4 °F 42.1 °F 90% 29.77 in 2.5 mi NNE 23.0 mph 29.9 mph 0.01 in Rain Light Rain
12:35 PM 44.1 °F 34.2 °F 41.0 °F 89% 29.77 in 3.0 mi NNE 28.8 mph 35.7 mph 0.01 in Rain Light Rain
12:53 PM 44.1 °F 34.8 °F 41.0 °F 89% 29.77 in 2.5 mi NNE 25.3 mph 31.1 mph 0.01 in Rain Light Rain
1:53 PM 44.1 °F 35.9 °F 41.0 °F 89% 29.80 in 1.8 mi North 19.6 mph 27.6 mph 0.01 in Rain Light Rain
2:40 PM 44.1 °F 35.0 °F 42.1 °F 93% 29.79 in 1.8 mi North 24.2 mph 31.1 mph 0.01 in Rain Light Rain
2:47 PM 44.6 °F 36.4 °F 42.8 °F 93% 29.80 in 2.0 mi North 20.7 mph 31.1 mph 0.01 in Rain Light Rain
2:53 PM 44.1 °F 35.2 °F 41.0 °F 89% 29.81 in 2.0 mi North 23.0 mph 31.1 mph 0.02 in Rain Light Rain
3:46 PM 44.1 °F 34.8 °F 41.0 °F 89% 29.82 in 1.8 mi North 25.3 mph 32.2 mph 0.00 in Rain Light Rain
3:53 PM 44.1 °F 34.8 °F 41.0 °F 89% 29.83 in 1.8 mi North 25.3 mph 32.2 mph 0.00 in Rain Light Rain
4:08 PM 43.0 °F 33.5 °F 41.0 °F 93% 29.83 in 2.0 mi North 24.2 mph 34.5 mph 0.01 in Rain Light Rain
4:20 PM 43.0 °F 32.9 °F 41.0 °F 93% 29.82 in 1.8 mi North 27.6 mph 33.4 mph 0.01 in Rain Light Rain
4:40 PM 43.0 °F 32.7 °F 41.0 °F 93% 29.83 in 2.0 mi North 28.8 mph 34.5 mph 0.01 in Rain Light Rain
4:53 PM 43.0 °F 32.9 °F 39.9 °F 89% 29.84 in 2.5 mi North 27.6 mph 34.5 mph 0.01 in Rain Light Rain
5:00 PM 43.0 °F 33.5 °F 39.9 °F 89% 29.84 in 4.0 mi North 24.2 mph 34.5 mph 0.00 in Rain Light Rain
5:29 PM 43.0 °F 34.2 °F 39.9 °F 89% 29.85 in 10.0 mi North 20.7 mph 34.5 mph 0.00 in   Overcast
5:53 PM 43.0 °F 34.8 °F 39.9 °F 89% 29.89 in 10.0 mi North 18.4 mph 31.1 mph 0.00 in   Overcast
6:04 PM 43.0 °F 33.3 °F 39.0 °F 86% 29.88 in 10.0 mi North 25.3 mph 31.1 mph N/A   Overcast
6:53 PM 41.0 °F 30.7 °F 37.9 °F 89% 29.87 in 5.0 mi North 25.3 mph 35.7 mph 0.01 in Rain Light Rain
7:53 PM 41.0 °F 30.7 °F 37.9 °F 89% 29.91 in 10.0 mi North 25.3 mph 36.8 mph 0.03 in Rain Light Rain
8:53 PM 41.0 °F 30.9 °F 37.9 °F 89% 29.92 in 7.0 mi North 24.2 mph 28.8 mph 0.09 in Rain Light Rain
9:03 PM 41.0 °F 31.1 °F 37.9 °F 89% 29.90 in 6.0 mi North 23.0 mph 31.1 mph 0.03 in Rain Light Rain
9:13 PM 41.0 °F 30.5 °F 37.9 °F 89% 29.93 in 6.0 mi North 26.5 mph 31.1 mph 0.05 in Rain Rain
9:22 PM 41.0 °F 30.7 °F 37.9 °F 89% 29.91 in 9.0 mi North 25.3 mph 32.2 mph 0.06 in Rain Light Rain
9:53 PM 41.0 °F 30.5 °F 37.0 °F 86% 29.94 in 10.0 mi North 26.5 mph 35.7 mph 0.14 in Rain Light Rain
10:18 PM 39.9 °F 29.5 °F 37.0 °F 89% 29.89 in 6.0 mi North 24.2 mph 42.6 mph 0.03 in Rain , Thunderstorm Light Rain
10:30 PM 41.0 °F 32.8 °F 37.0 °F 86% 29.93 in 9.0 mi North 16.1 mph - 0.04 in Rain , Thunderstorm Light Rain
10:51 PM 39.2 °F 29.3 °F 37.4 °F 93% 29.96 in 9.0 mi North 20.7 mph 28.8 mph 0.05 in Rain Light Rain
10:53 PM 39.9 °F 30.0 °F 37.0 °F 89% 29.98 in 9.0 mi North 21.9 mph - 0.05 in Rain Light Rain
11:53 PM 39.0 °F 27.8 °F 36.0 °F 89% 29.95 in 6.0 mi North 26.5 mph 35.7 mph 0.09 in Rain Light Rain
11:57 PM 39.0 °F 27.4 °F 36.0 °F 89% 29.90 in 7.0 mi North 28.8 mph 35.7 mph 0.00 in Rain Light Rain